Weather History for Unalakleet, AK

Change the Weather History Date:

Monday, February 20, 2012

  Actual Average Record
Temperature  
Mean Temperature 22 °F -  
Max Temperature 26 °F 10 °F 42 °F (2008)
Min Temperature 19 °F -5 °F -37 °F (1985)
Degree Days  
Heating Degree Days 42    
Moisture  
Dew Point 4 °F    
Average Humidity 47    
Maximum Humidity 54    
Minimum Humidity 40    
Precipitation  
Precipitation 0.00 in - - ()
Sea Level Pressure  
Sea Level Pressure 29.09 in    
Wind  
Wind Speed 15 mph (East)    
Max Wind Speed 32 mph    
Max Gust Speed 37 mph    
Visibility 10 miles    
Events      
Averages and records for this station are not official NWS values.
T = Trace of Precipitation, MM = Missing Value Source: NWS Daily Summary

Daily Weather History Graph

Daily Weather History Graph

Search for Another Location

Airport:

Trip Planner

Search our weather history database for the weather conditions in past years. The results will help you decide how hot, cold, wet, or windy it might be!

Date:

Astronomy

Feb. 20, 2012 Rise Set
Actual Time 9:21 AM AKST 6:33 PM AKST
Civil Twilight 8:32 AM AKST 7:23 PM AKST
Nautical Twilight 7:37 AM AKST 8:18 PM AKST
Astronomical Twilight 6:42 AM AKST 9:13 PM AKST
Moon 8:32 AM AKST (2/20) 5:50 PM AKST (2/20)
Length of Visible Light 10h 51m
Length of Day
9h 12m
Waning Crescent, 1% of the Moon is Illuminated
Feb 20
Waning Crescent
Feb 21
New
Feb 29
First Quarter
Mar 8
Full
Mar 14
Last Quarter

Hourly Weather History & Observations

Time (AKST) Temp. Windchill Dew Point Humidity Pressure Visibility Wind Dir Wind Speed Gust Speed Precip Events Conditions
12:16 AM 21.2 °F 8.3 °F 6.8 °F 54% 29.25 in 10.0 mi East 13.8 mph 20.7 mph N/A   Overcast
12:36 AM 21.2 °F 7.3 °F 6.8 °F 54% 29.24 in 10.0 mi East 16.1 mph 20.7 mph N/A   Overcast
12:56 AM 21.2 °F 6.8 °F 6.8 °F 54% 29.23 in 10.0 mi East 17.3 mph 23.0 mph N/A   Overcast
1:16 AM 21.2 °F 10.1 °F 6.8 °F 54% 29.23 in 10.0 mi East 10.4 mph - N/A   Overcast
1:36 AM 21.2 °F 10.1 °F 6.8 °F 54% 29.22 in 10.0 mi East 10.4 mph - N/A   Overcast
1:56 AM 21.2 °F 6.8 °F 6.8 °F 54% 29.21 in 10.0 mi East 17.3 mph 21.9 mph N/A   Overcast
2:16 AM 21.2 °F 6.0 °F 6.8 °F 54% 29.20 in 10.0 mi East 19.6 mph - N/A   Overcast
2:36 AM 21.2 °F 5.6 °F 6.8 °F 54% 29.19 in 10.0 mi East 20.7 mph 25.3 mph N/A   Overcast
2:56 AM 21.2 °F 7.8 °F 5.0 °F 50% 29.19 in 10.0 mi East 15.0 mph - N/A   Overcast
3:16 AM 21.2 °F 6.0 °F 5.0 °F 50% 29.17 in 10.0 mi East 19.6 mph - N/A   Overcast
3:36 AM 21.2 °F 5.6 °F 5.0 °F 50% 29.17 in 10.0 mi East 20.7 mph - N/A   Overcast
3:56 AM 21.2 °F 5.6 °F 5.0 °F 50% 29.16 in 10.0 mi East 20.7 mph - N/A   Overcast
4:16 AM 21.2 °F 6.4 °F 5.0 °F 50% 29.15 in 10.0 mi East 18.4 mph - N/A   Overcast
4:36 AM 21.2 °F 4.9 °F 5.0 °F 50% 29.13 in 10.0 mi East 23.0 mph 26.5 mph N/A   Mostly Cloudy
4:56 AM 21.2 °F 3.3 °F 3.2 °F 46% 29.10 in 10.0 mi East 28.8 mph 35.7 mph N/A   Mostly Cloudy
5:16 AM 19.4 °F -0.0 °F 5.0 °F 54% 29.09 in 8.0 mi East 32.2 mph 36.8 mph N/A   Mostly Cloudy
5:36 AM 19.4 °F 1.4 °F 3.2 °F 49% 29.09 in 10.0 mi East 26.5 mph 34.5 mph N/A   Clear
5:56 AM 19.4 °F 2.1 °F 3.2 °F 49% 29.09 in 10.0 mi ENE 24.2 mph 28.8 mph N/A   Clear
6:16 AM 19.4 °F 6.6 °F 3.2 °F 49% 29.11 in 10.0 mi East 12.7 mph - N/A   Clear
6:36 AM 19.4 °F 3.6 °F 3.2 °F 49% 29.10 in 10.0 mi East 19.6 mph 24.2 mph N/A   Clear
6:56 AM 19.4 °F 4.1 °F 3.2 °F 49% 29.10 in 10.0 mi East 18.4 mph 23.0 mph N/A   Clear
7:16 AM 19.4 °F 6.6 °F 3.2 °F 49% 29.11 in 10.0 mi East 12.7 mph - N/A   Mostly Cloudy
7:36 AM 19.4 °F 7.2 °F 3.2 °F 49% 29.11 in 10.0 mi East 11.5 mph 18.4 mph N/A   Overcast
7:56 AM 19.4 °F 7.9 °F 1.4 °F 46% 29.10 in 10.0 mi East 10.4 mph - N/A   Scattered Clouds
8:16 AM 19.4 °F 7.2 °F 3.2 °F 49% 29.09 in 10.0 mi East 11.5 mph - N/A   Mostly Cloudy
8:36 AM 19.4 °F 6.0 °F 3.2 °F 49% 29.08 in 10.0 mi East 13.8 mph - N/A   Partly Cloudy
8:56 AM 19.4 °F 11.5 °F 1.4 °F 46% 29.08 in 10.0 mi East 5.8 mph - N/A   Clear
9:16 AM 19.4 °F 10.4 °F 3.2 °F 49% 29.08 in 10.0 mi East 6.9 mph - N/A   Clear
9:36 AM 21.2 °F 10.1 °F 3.2 °F 46% 29.07 in 10.0 mi East 10.4 mph - N/A   Clear
9:56 AM 21.2 °F 10.1 °F 1.4 °F 42% 29.07 in 10.0 mi ENE 10.4 mph - N/A   Clear
10:16 AM 19.4 °F 6.6 °F 3.2 °F 49% 29.07 in 10.0 mi ENE 12.7 mph - N/A   Clear
10:36 AM 19.4 °F 7.2 °F 3.2 °F 49% 29.06 in 10.0 mi East 11.5 mph - N/A   Clear
10:56 AM 19.4 °F 8.6 °F 3.2 °F 49% 29.06 in 10.0 mi East 9.2 mph - N/A   Clear
11:16 AM 19.4 °F 8.6 °F 3.2 °F 49% 29.06 in 10.0 mi East 9.2 mph - N/A   Clear
11:36 AM 21.2 °F 9.5 °F 3.2 °F 46% 29.06 in 10.0 mi East 11.5 mph - N/A   Clear
11:56 AM 21.2 °F 10.1 °F 3.2 °F 46% 29.06 in 10.0 mi ENE 10.4 mph - N/A   Clear
12:16 PM 21.2 °F 10.9 °F 3.2 °F 46% 29.05 in 10.0 mi East 9.2 mph - N/A   Clear
12:36 PM 23.0 °F 11.7 °F 3.2 °F 43% 29.04 in 10.0 mi ENE 11.5 mph 17.3 mph N/A   Scattered Clouds
12:56 PM 24.8 °F 14.0 °F 5.0 °F 43% 29.04 in 10.0 mi East 11.5 mph - N/A   Overcast
1:16 PM 24.8 °F 16.9 °F 6.8 °F 46% 29.04 in 10.0 mi ESE 6.9 mph - N/A   Overcast
1:36 PM 24.8 °F 12.4 °F 5.0 °F 43% 29.04 in 10.0 mi East 15.0 mph 20.7 mph N/A   Overcast
1:56 PM 24.8 °F 12.4 °F 5.0 °F 43% 29.03 in 10.0 mi East 15.0 mph 21.9 mph N/A   Overcast
2:16 PM 24.8 °F 12.4 °F 5.0 °F 43% 29.03 in 10.0 mi East 15.0 mph 18.4 mph N/A   Mostly Cloudy
2:36 PM 24.8 °F 12.4 °F 5.0 °F 43% 29.03 in 10.0 mi East 15.0 mph - N/A   Partly Cloudy
2:56 PM 24.8 °F 11.1 °F 5.0 °F 43% 29.03 in 10.0 mi East 18.4 mph 24.2 mph N/A   Clear
3:16 PM 24.8 °F 12.9 °F 5.0 °F 43% 29.03 in 10.0 mi East 13.8 mph - N/A   Clear
3:36 PM 24.8 °F 14.0 °F 6.8 °F 46% 29.03 in 10.0 mi ENE 11.5 mph - N/A   Clear
3:56 PM 24.8 °F 13.4 °F 5.0 °F 43% 29.02 in 10.0 mi East 12.7 mph - N/A   Clear
4:16 PM 24.8 °F 17.9 °F 5.0 °F 43% 29.02 in 10.0 mi ENE 5.8 mph - N/A   Clear
4:36 PM 24.8 °F 16.1 °F 5.0 °F 43% 29.01 in 10.0 mi ENE 8.1 mph - N/A   Clear
4:56 PM 26.6 °F 17.5 °F 5.0 °F 40% 29.02 in 10.0 mi ENE 9.2 mph - N/A   Clear
5:16 PM 26.6 °F 17.5 °F 5.0 °F 40% 29.01 in 10.0 mi ENE 9.2 mph - N/A   Clear
5:36 PM 24.8 °F 15.3 °F 5.0 °F 43% 29.01 in 10.0 mi ENE 9.2 mph - N/A   Mostly Cloudy
5:56 PM 24.8 °F 16.9 °F 5.0 °F 43% 29.02 in 10.0 mi East 6.9 mph - N/A   Overcast
6:16 PM 24.8 °F 14.6 °F 5.0 °F 43% 29.02 in 10.0 mi East 10.4 mph - N/A   Overcast
6:36 PM 23.0 °F 15.8 °F 5.0 °F 46% 29.02 in 10.0 mi East 5.8 mph - N/A   Mostly Cloudy
6:56 PM 23.0 °F 13.9 °F 5.0 °F 46% 29.03 in 10.0 mi ENE 8.1 mph - N/A   Mostly Cloudy
7:16 PM 23.0 °F 13.1 °F 3.2 °F 43% 29.03 in 10.0 mi East 9.2 mph - N/A   Clear
7:36 PM 21.2 °F 10.9 °F 3.2 °F 46% 29.04 in 10.0 mi East 9.2 mph - N/A   Clear
7:56 PM 21.2 °F 13.6 °F 3.2 °F 46% 29.05 in 10.0 mi ENE 5.8 mph - N/A   Clear
8:16 PM 19.4 °F 8.6 °F 3.2 °F 49% 29.05 in 10.0 mi East 9.2 mph - N/A   Scattered Clouds
8:36 PM 19.4 °F 9.5 °F 1.4 °F 46% 29.05 in 10.0 mi ENE 8.1 mph - N/A   Clear
8:56 PM 19.4 °F 7.9 °F 3.2 °F 49% 29.06 in 10.0 mi ENE 10.4 mph - N/A   Clear
9:16 PM 19.4 °F 8.6 °F 3.2 °F 49% 29.06 in 10.0 mi ENE 9.2 mph - N/A   Clear
9:36 PM 17.6 °F 6.4 °F 1.4 °F 49% 29.07 in 10.0 mi ENE 9.2 mph - N/A   Clear
9:56 PM 17.6 °F 5.7 °F 1.4 °F 49% 29.07 in 10.0 mi East 10.4 mph - N/A   Clear
10:16 PM 17.6 °F 6.4 °F 3.2 °F 53% 29.07 in 10.0 mi East 9.2 mph - N/A   Clear
10:36 PM 17.6 °F 10.7 °F 1.4 °F 49% 29.08 in 10.0 mi NE 4.6 mph - N/A   Clear
10:56 PM 17.6 °F 8.2 °F 1.4 °F 49% 29.08 in 10.0 mi ENE 6.9 mph - N/A   Clear
11:16 PM 15.8 °F 10.2 °F 1.4 °F 53% 29.09 in 10.0 mi East 3.5 mph - N/A   Clear
11:36 PM 15.8 °F - 1.4 °F 53% 29.09 in 10.0 mi Calm Calm - N/A   Clear
11:56 PM 15.8 °F 10.2 °F 1.4 °F 53% 29.09 in 10.0 mi NE 3.5 mph - N/A   Clear